Flight Track Log - Related Links

Times and Time Zones

All times are in EDT time to prevent confusion due to time zone crossing. See the N560WW flight status page for this flight to view local times or setup timezone preferences in your user account.

Time Position Orientation Groundspeed Altitude Reporting Facility
EDT Latitude Longitude Course Direction KTS MPH feet Rate Location/Type
11:30AM 35.5206 -97.6508 205° Southwest 166 191 1,900  Level Fort Worth Center
11:31AM 35.4769 -97.6761 205° Southwest 230 265 4,200 2,452 Climbing Fort Worth Center
11:32AM 35.4183 -97.7319 218° Southwest 268 308 6,600 2,350 Climbing Fort Worth Center
11:33AM 35.4200 -97.8236 271° West 281 323 8,900 2,400 Climbing Fort Worth Center
11:34AM 35.4322 -97.9078 280° West 295 339 11,400 2,400 Climbing Fort Worth Center
11:35AM 35.4464 -98.0022 280° West 295 339 13,700 2,250 Climbing Fort Worth Center
11:36AM 35.4628 -98.0942 282° West 289 333 15,900 1,900 Climbing Fort Worth Center
11:37AM 35.4767 -98.1883 280° West 284 327 17,500 1,550 Climbing Fort Worth Center
11:38AM 35.4950 -98.2856 283° West 284 327 19,000 1,600 Climbing Fort Worth Center
11:39AM 35.5150 -98.3878 284° West 296 341 20,700 1,350 Climbing Fort Worth Center
11:40AM 35.5331 -98.4697 285° West 302 348 21,700 650 Climbing Fort Worth Center
11:41AM 35.5589 -98.6025 283° West 322 371 22,000 150 Climbing Fort Worth Center
11:42AM 35.5808 -98.7228 283° West 346 398 22,000  Level Fort Worth Center
11:43AM 35.5939 -98.8456 277° West 359 413 22,000  Level Fort Worth Center
11:44AM 35.6031 -98.9658 275° West 364 419 22,000  Level Fort Worth Center
11:45AM 35.6244 -99.0886 282° West 364 419 22,000  Level Fort Worth Center
11:46AM 35.6414 -99.2142 279° West 371 427 22,000  Level Fort Worth Center
11:47AM 35.6614 -99.3397 281° West 374 430 22,000  Level Kansas City Center
11:48AM 35.6794 -99.4656 280° West 371 427 22,000  Level Kansas City Center
11:50AM 35.7233 -99.7683 280° West 371 427 22,000  Level Albuquerque Center
11:52AM 35.7394 -99.8939 279° West 370 426 22,000 -484 Level Albuquerque Center
11:53AM 35.7572 -100.0103 281° West 351 404 21,000 -1,306 Descending Albuquerque Center
11:54AM 35.7717 -100.1311 278° West 300 345 19,300 -1,707 Descending Albuquerque Center
11:55AM 35.7850 -100.2308 279° West 292 336 17,500 -1,610 Descending Albuquerque Center
11:56AM 35.8011 -100.3414 280° West 311 358 16,000 -1,452 Descending Albuquerque Center
11:57AM 35.8025 -100.4514 271° West 320 368 14,500 -1,452 Descending Albuquerque Center

Login

Don't have an account? Register now (free) for customized features, flight alerts, and more!